| time (UTC) | temp F | wind direction | speed MPH | gust MPH | rain 1hr in | rain 24hr in | rain mn in | humidity % | barometer mb |
| 20260508004511 | 48 | 360 | 2.0 | 3.0 | 0.00 | 0.01 | 0.00 | 86 | 1014.4 |
| 20260508003009 | 48 | 360 | 1.0 | 2.0 | 0.00 | 0.01 | 0.00 | 83 | 1014.5 |
| 20260508001605 | 49 | 360 | 0.0 | 1.0 | 0.00 | 0.01 | 0.00 | 83 | 1014.4 |
| 20260507234540 | 49 | 360 | 0.0 | 0.0 | 0.00 | 0.01 | 0.00 | 82 | 1014.5 |
| 20260507231529 | 50 | 360 | 0.0 | 1.0 | 0.00 | 0.01 | 0.00 | 80 | 1014.7 |
| 20260507230024 | 50 | 360 | 0.0 | 1.0 | 0.00 | 0.01 | 0.00 | 81 | 1014.7 |
| 20260507224523 | 51 | 360 | 1.0 | 2.0 | 0.00 | 0.01 | 0.00 | 80 | 1014.6 |
| 20260507223021 | 51 | 360 | 0.0 | 1.0 | 0.00 | 0.01 | 0.00 | 80 | 1014.5 |
| 20260507221518 | 51 | 360 | 0.0 | 2.0 | 0.00 | 0.01 | 0.00 | 78 | 1014.5 |
| 20260507214512 | 52 | 360 | 1.0 | 2.0 | 0.00 | 0.01 | 0.01 | 77 | 1014.5 |
| 20260507213011 | 52 | 360 | 0.0 | 1.0 | 0.00 | 0.01 | 0.01 | 76 | 1014.4 |
| 20260507211510 | 53 | 360 | 0.0 | 0.0 | 0.00 | 0.01 | 0.01 | 76 | 1014.3 |
| 20260507210011 | 53 | 360 | 0.0 | 2.0 | 0.00 | 0.01 | 0.01 | 75 | 1014.2 |
| 20260507204510 | 53 | 360 | 1.0 | 2.0 | 0.00 | 0.01 | 0.01 | 74 | 1014.2 |
| 20260507203007 | 54 | 360 | 0.0 | 2.0 | 0.00 | 0.01 | 0.01 | 75 | 1014.1 |
| 20260507201505 | 54 | 360 | 1.0 | 2.0 | 0.00 | 0.01 | 0.01 | 74 | 1014.0 |
| 20260507200005 | 54 | 360 | 1.0 | 2.0 | 0.00 | 0.01 | 0.01 | 73 | 1013.9 |
| 20260507194503 | 55 | 360 | 0.0 | 2.0 | 0.00 | 0.01 | 0.01 | 71 | 1013.9 |
| 20260507193001 | 55 | 360 | 1.0 | 2.0 | 0.00 | 0.01 | 0.01 | 71 | 1013.7 |
| 20260507191617 | 56 | 360 | 1.0 | 2.0 | 0.00 | 0.01 | 0.01 | 72 | 1013.7 |
| 20260507190100 | 56 | 360 | 0.0 | 2.0 | 0.00 | 0.01 | 0.01 | 72 | 1013.6 |
| 20260507184605 | 57 | 360 | 0.0 | 2.0 | 0.00 | 0.02 | 0.01 | 70 | 1013.4 |
| 20260507183103 | 57 | 360 | 0.0 | 3.0 | 0.00 | 0.02 | 0.01 | 68 | 1013.3 |
| 20260507181556 | 58 | 360 | 2.0 | 4.0 | 0.00 | 0.02 | 0.01 | 66 | 1013.3 |
| 20260507180056 | 59 | 360 | 0.0 | 2.0 | 0.00 | 0.02 | 0.01 | 65 | 1013.3 |
| 20260507174554 | 59 | 360 | 0.0 | 4.0 | 0.00 | 0.02 | 0.01 | 62 | 1013.1 |
| 20260507173053 | 60 | 360 | 0.0 | 1.0 | 0.00 | 0.02 | 0.01 | 62 | 1013.0 |
| 20260507171552 | 60 | 360 | 0.0 | 1.0 | 0.00 | 0.02 | 0.01 | 61 | 1013.0 |
| 20260507170055 | 60 | 360 | 0.0 | 3.0 | 0.00 | 0.02 | 0.01 | 58 | 1012.9 |
| 20260507164605 | 61 | 360 | 1.0 | 3.0 | 0.00 | 0.02 | 0.01 | 57 | 1012.9 |
| 20260507163049 | 61 | 360 | 2.0 | 5.0 | 0.00 | 0.02 | 0.01 | 54 | 1012.9 |
| 20260507161552 | 61 | 225 | 1.0 | 3.0 | 0.00 | 0.02 | 0.01 | 55 | 1012.9 |
| 20260507160051 | 61 | 225 | 0.0 | 3.0 | 0.00 | 0.02 | 0.01 | 53 | 1012.9 |
| 20260507154548 | 62 | 225 | 0.0 | 4.0 | 0.00 | 0.02 | 0.01 | 57 | 1012.8 |
| 20260507153049 | 62 | 225 | 1.0 | 3.0 | 0.00 | 0.02 | 0.01 | 60 | 1012.8 |
| 20260507151547 | 62 | 225 | 0.0 | 3.0 | 0.00 | 0.02 | 0.01 | 54 | 1012.8 |
| 20260507150049 | 61 | 224 | 0.0 | 4.0 | 0.00 | 0.02 | 0.01 | 55 | 1012.7 |
| 20260507144546 | 62 | 224 | 1.0 | 5.0 | 0.00 | 0.03 | 0.01 | 57 | 1012.7 |
| 20260507143100 | 61 | 223 | 3.0 | 6.0 | 0.00 | 0.03 | 0.01 | 57 | 1012.7 |
| 20260507141604 | 63 | 261 | 2.0 | 6.0 | 0.00 | 0.03 | 0.01 | 58 | 1012.9 |
| 20260507140045 | 64 | 235 | 2.0 | 8.0 | 0.00 | 0.03 | 0.01 | 56 | 1012.9 |
| 20260507134544 | 64 | 162 | 2.0 | 8.0 | 0.00 | 0.04 | 0.01 | 52 | 1013.0 |
| 20260507133044 | 65 | 236 | 1.0 | 9.0 | 0.00 | 0.04 | 0.01 | 53 | 1013.0 |
| 20260507131552 | 66 | 189 | 2.0 | 6.0 | 0.00 | 0.04 | 0.01 | 51 | 1012.9 |
| 20260507130043 | 64 | 355 | 2.0 | 5.0 | 0.00 | 0.04 | 0.01 | 55 | 1012.9 |
| 20260507124537 | 64 | 260 | 3.0 | 11.0 | 0.00 | 0.06 | 0.01 | 54 | 1012.9 |
| 20260507123039 | 63 | 235 | 2.0 | 8.0 | 0.00 | 0.06 | 0.01 | 57 | 1012.9 |
| 20260507121535 | 63 | 89 | 1.0 | 4.0 | 0.00 | 0.06 | 0.01 | 57 | 1012.8 |
| 20260507120031 | 62 | 234 | 1.0 | 9.0 | 0.00 | 0.06 | 0.01 | 58 | 1012.8 |
| 20260507114529 | 61 | 350 | 1.0 | 4.0 | 0.00 | 0.06 | 0.01 | 60 | 1012.7 |
| 20260507113026 | 61 | 350 | 2.0 | 4.0 | 0.00 | 0.06 | 0.01 | 64 | 1012.7 |
| 20260507111524 | 61 | 36 | 2.0 | 6.0 | 0.00 | 0.06 | 0.01 | 65 | 1012.8 |
| 20260507110022 | 60 | 32 | 4.0 | 9.0 | 0.00 | 0.06 | 0.01 | 67 | 1012.8 |
| 20260507104518 | 58 | 336 | 0.0 | 5.0 | 0.00 | 0.06 | 0.01 | 74 | 1012.9 |
| 20260507103017 | 58 | 257 | 0.0 | 4.0 | 0.00 | 0.06 | 0.01 | 73 | 1012.9 |
| 20260507101516 | 58 | 49 | 1.0 | 5.0 | 0.00 | 0.06 | 0.01 | 73 | 1012.9 |
| 20260507100014 | 57 | 340 | 0.0 | 3.0 | 0.00 | 0.06 | 0.01 | 76 | 1012.8 |
| 20260507094510 | 57 | 19 | 2.0 | 6.0 | 0.00 | 0.06 | 0.01 | 77 | 1012.7 |
| 20260507093009 | 57 | 269 | 2.0 | 9.0 | 0.00 | 0.06 | 0.01 | 78 | 1012.5 |
| 20260507091511 | 56 | 221 | 2.0 | 6.0 | 0.00 | 0.06 | 0.01 | 80 | 1012.5 |
| 20260507090005 | 55 | 301 | 1.0 | 6.0 | 0.00 | 0.06 | 0.01 | 80 | 1012.4 |
| 20260507084600 | 54 | 355 | 1.0 | 4.0 | 0.00 | 0.08 | 0.01 | 85 | 1012.5 |
| 20260507083058 | 53 | 29 | 0.0 | 4.0 | 0.00 | 0.08 | 0.01 | 89 | 1012.3 |
| 20260507081556 | 52 | 328 | 1.0 | 3.0 | 0.00 | 0.08 | 0.01 | 90 | 1012.3 |
| 20260507074546 | 50 | 277 | 0.0 | 4.0 | 0.00 | 0.10 | 0.01 | 94 | 1012.0 |
| 20260507073042 | 50 | 279 | 0.0 | 4.0 | 0.00 | 0.10 | 0.01 | 96 | 1012.0 |
| 20260507071538 | 49 | 278 | 0.0 | 3.0 | 0.00 | 0.10 | 0.01 | 96 | 1011.8 |
| 20260507070042 | 49 | 261 | 0.0 | 4.0 | 0.00 | 0.10 | 0.01 | 96 | 1011.7 |
| 20260507064557 | 48 | 258 | 0.0 | 3.0 | 0.00 | 0.11 | 0.01 | 96 | 1011.6 |
| 20260507063033 | 47 | 301 | 0.0 | 4.0 | 0.00 | 0.11 | 0.01 | 96 | 1011.4 |
| 20260507061529 | 47 | 296 | 1.0 | 5.0 | 0.00 | 0.11 | 0.01 | 96 | 1011.4 |
| 20260507060027 | 46 | 301 | 0.0 | 5.0 | 0.00 | 0.11 | 0.01 | 96 | 1011.2 |
| 20260507054520 | 46 | 302 | 0.0 | 6.0 | 0.00 | 0.13 | 0.01 | 96 | 1011.1 |
| 20260507053016 | 46 | 309 | 0.0 | 2.0 | 0.00 | 0.13 | 0.01 | 96 | 1011.0 |
| 20260507051512 | 45 | 309 | 0.0 | 4.0 | 0.00 | 0.13 | 0.01 | 96 | 1010.8 |
| 20260507050029 | 45 | 309 | 0.0 | 4.0 | 0.00 | 0.13 | 0.01 | 96 | 1010.7 |
| 20260507044506 | 45 | 309 | 0.0 | 3.0 | 0.00 | 0.13 | 0.01 | 96 | 1010.5 |
| 20260507043005 | 45 | 309 | 0.0 | 2.0 | 0.00 | 0.13 | 0.01 | 96 | 1010.4 |
| 20260507041510 | 45 | 309 | 0.0 | 2.0 | 0.00 | 0.13 | 0.01 | 95 | 1010.2 |
| 20260507040001 | 45 | 309 | 0.0 | 1.0 | 0.00 | 0.13 | 0.01 | 95 | 1010.1 |
| 20260507034601 | 45 | 309 | 0.0 | 1.0 | 0.00 | 0.14 | 0.01 | 95 | 1010.1 |
| 20260507033059 | 45 | 309 | 0.0 | 2.0 | 0.00 | 0.14 | 0.01 | 95 | 1010.0 |
| 20260507031557 | 45 | 309 | 0.0 | 1.0 | 0.00 | 0.14 | 0.01 | 95 | 1009.9 |
| 20260507030058 | 45 | 309 | 0.0 | 1.0 | 0.00 | 0.14 | 0.01 | 96 | 1009.8 |
| 20260507024556 | 45 | 309 | 0.0 | 2.0 | 0.00 | 0.18 | 0.01 | 96 | 1009.8 |
| 20260507023055 | 46 | 307 | 0.0 | 2.0 | 0.00 | 0.18 | 0.01 | 96 | 1009.8 |
| 20260507021553 | 46 | 307 | 0.0 | 2.0 | 0.00 | 0.18 | 0.01 | 96 | 1009.7 |
| 20260507014557 | 46 | 307 | 0.0 | 3.0 | 0.00 | 0.19 | 0.01 | 96 | 1009.4 |
| 20260507013050 | 46 | 307 | 0.0 | 2.0 | 0.00 | 0.19 | 0.01 | 96 | 1009.3 |
| 20260507011548 | 46 | 307 | 0.0 | 1.0 | 0.00 | 0.19 | 0.01 | 96 | 1009.2 |
| 20260507010058 | 46 | 307 | 0.0 | 5.0 | 0.01 | 0.19 | 0.01 | 96 | 1009.1 |